This demonstration page uses our WeatherBlox Daily Observations layout. Learn more.

39.29038, -76.61219

Hourly Observations for December 31, 2019

Temp ( °F °C ) Dew Point ( °F °C ) Humidity (%) Winds ( mph kmh ) Pressure ( in mb ) Visibility ( mi km ) Precip ( " mm )
12:54 am 00:54 undefined 43 6.1 39 3.9 86 86 undefined N/A 29.73 1007 N/A 0 0
1:54 am 01:54 undefined 43 6.1 39 3.9 86 86 undefined N/A 29.74 1007 N/A 0 0
2:54 am 02:54 undefined 43 6.1 39 3.9 86 86 undefined N/A 29.75 1008 N/A 0 0
3:54 am 03:54 undefined 43 6.1 39 3.9 86 86 undefined N/A 29.74 1007 N/A 0 0
4:54 am 04:54 undefined 43 6.1 38 3.3 82 82 undefined N/A 29.74 1007 N/A 0 0
5:54 am 05:54 undefined 43 6.1 38 3.3 82 82 undefined N/A 29.72 1007 N/A 0 0
6:54 am 06:54 undefined 43 6.1 38 3.3 82 82 undefined N/A 29.75 1007 N/A 0 0
7:54 am 07:54 undefined 43 6.1 38 3.3 82 82 undefined N/A 29.74 1007 N/A 0 0
8:54 am 08:54 undefined 44 6.7 38 3.3 79 79 undefined N/A 29.75 1008 N/A 0 0
9:54 am 09:54 undefined 44 6.7 38 3.3 79 79 undefined N/A 29.75 1008 N/A 0 0
10:54 am 10:54 undefined 46 7.8 39 3.9 77 77 undefined N/A 29.76 1008 N/A 0 0
11:54 am 11:54 undefined 48 8.9 40 4.4 74 74 undefined N/A 29.73 1007 N/A 0 0
12:54 pm 12:54 undefined 52 11.1 38 3.3 59 59 undefined N/A 29.73 1007 N/A 0 0
1:54 pm 13:54 undefined 51 10.6 37 2.8 59 59 undefined N/A 29.66 1004 N/A 0 0
2:54 pm 14:54 undefined 52 11.1 34 1.1 50 50 undefined N/A 29.64 1004 N/A 0 0
3:54 pm 15:54 undefined 51 10.6 31 -0.6 46 46 undefined N/A 29.65 1004 N/A 0 0
4:54 pm 16:54 undefined 51 10.6 31 -0.6 46 46 undefined N/A 29.66 1004 N/A 0 0
5:54 pm 17:54 undefined 50 10 31 -0.6 48 48 undefined N/A 29.68 1005 N/A 0 0
6:54 pm 18:54 undefined 50 10 30 -1.1 46 46 undefined N/A 29.69 1005 N/A 0 0
7:54 pm 19:54 undefined 48 8.9 27 -2.8 44 44 undefined N/A 29.69 1006 N/A 0 0
8:54 pm 20:54 undefined 47 8.3 26 -3.3 44 44 undefined N/A 29.7 1006 N/A 0 0
9:54 pm 21:54 undefined 46 7.8 26 -3.3 46 46 undefined N/A 29.73 1007 N/A 0 0
10:54 pm 22:54 undefined 46 7.8 26 -3.3 46 46 undefined N/A 29.75 1007 N/A 0 0
11:54 pm 23:54 undefined 45 7.2 26 -3.3 48 48 undefined N/A 29.74 1007 N/A 0 0

Powered by AerisWeather